• In Hungary
  • List of Countries
  • For 7 days
  • Water Temperature
  • Satellite Maps
  • Weather Map
  • News
  • Weather Widgets
  • user-avatar
    Login

    Hourly Weather Liwonde

    Today, 14 November, Wednesday

    Time Temperature Precipitation Wind Pressure Humidity
    00:00 +25°C° 0 mm 2 mps 718 mmHg 56%
    01:00 +24°C° 0 mm 2 mps 718 mmHg 61%
    02:00 +23°C° 0 mm 1 mps 718 mmHg 66%
    03:00 +23°C° 0 mm 1 mps 718 mmHg 69%
    04:00 +22°C° 0 mm 1 mps 718 mmHg 73%
    05:00 +22°C° 0 mm 1 mps 718 mmHg 77%
    06:00 +24°C° 0 mm 1 mps 719 mmHg 68%
    07:00 +26°C° 0 mm 1 mps 719 mmHg 60%
    08:00 +28°C° 0 mm 1 mps 720 mmHg 52%
    09:00 +31°C° 0 mm 1 mps 720 mmHg 44%
    10:00 +33°C° 0 mm 1 mps 720 mmHg 36%
    11:00 +36°C° 0 mm 1 mps 719 mmHg 28%
    12:00 +37°C° 0 mm 1 mps 719 mmHg 26%
    13:00 +37°C° 0 mm 1 mps 718 mmHg 24%
    14:00 +39°C° 0 mm 1 mps 717 mmHg 22%
    15:00 +37°C° 0 mm 1 mps 717 mmHg 23%
    16:00 +35°C° 0 mm 1 mps 716 mmHg 23%
    17:00 +35°C° 0 mm 2 mps 716 mmHg 24%
    18:00 +34°C° 0 mm 2 mps 716 mmHg 26%
    19:00 +32°C° 0 mm 2 mps 717 mmHg 28%
    20:00 +30°C° 0 mm 2 mps 717 mmHg 30%
    21:00 +29°C° 0 mm 2 mps 718 mmHg 34%
    22:00 +28°C° 0 mm 2 mps 718 mmHg 38%
    23:00 +28°C° 0 mm 2 mps 718 mmHg 41%

    Tomorrow, 15 November, Thursday

    Time Temperature Precipitation Wind Pressure Humidity
    00:00 +27°C° 0 mm 2 mps 718 mmHg 48%
    01:00 +26°C° 0 mm 2 mps 718 mmHg 54%
    02:00 +25°C° 0 mm 1 mps 718 mmHg 60%
    03:00 +24°C° 0 mm 1 mps 718 mmHg 63%
    04:00 +24°C° 0 mm 1 mps 718 mmHg 66%
    05:00 +24°C° 0 mm 1 mps 718 mmHg 70%
    06:00 +26°C° 0 mm 1 mps 719 mmHg 62%
    07:00 +28°C° 0 mm 1 mps 720 mmHg 54%
    08:00 +30°C° 0 mm 2 mps 720 mmHg 47%
    09:00 +32°C° 0 mm 2 mps 720 mmHg 41%
    10:00 +35°C° 0 mm 2 mps 720 mmHg 35%
    11:00 +37°C° 0 mm 2 mps 719 mmHg 29%
    12:00 +38°C° 0 mm 2 mps 719 mmHg 27%
    13:00 +38°C° 0 mm 2 mps 718 mmHg 25%
    14:00 +38°C° 0 mm 2 mps 717 mmHg 23%
    15:00 +37°C° 0 mm 2 mps 717 mmHg 25%
    16:00 +36°C° 0 mm 2 mps 717 mmHg 26%
    17:00 +35°C° 0 mm 3 mps 717 mmHg 28%
    18:00 +34°C° 0 mm 2 mps 717 mmHg 31%
    19:00 +32°C° 0 mm 2 mps 718 mmHg 34%
    20:00 +31°C° 0 mm 2 mps 719 mmHg 37%
    21:00 +30°C° 0 mm 1 mps 719 mmHg 40%
    22:00 +29°C° 0 mm 1 mps 719 mmHg 43%
    23:00 +28°C° 0 mm 1 mps 719 mmHg 46%

    Day after tomorrow, 16 November, Friday

    Time Temperature Precipitation Wind Pressure Humidity
    00:00 +27°C° 0 mm 1 mps 719 mmHg 49%
    01:00 +27°C° 0 mm 1 mps 719 mmHg 53%
    02:00 +26°C° 0 mm 1 mps 718 mmHg 56%
    03:00 +26°C° 0 mm 1 mps 718 mmHg 59%
    04:00 +25°C° 0 mm 1 mps 719 mmHg 61%
    05:00 +25°C° 0 mm 1 mps 719 mmHg 64%
    06:00 +27°C° 0 mm 1 mps 719 mmHg 58%
    07:00 +29°C° 0 mm 2 mps 720 mmHg 52%
    08:00 +31°C° 0 mm 2 mps 721 mmHg 46%
    09:00 +34°C° 0 mm 2 mps 720 mmHg 40%
    10:00 +36°C° 0 mm 2 mps 720 mmHg 34%
    11:00 +38°C° 0 mm 2 mps 720 mmHg 28%
    12:00 +38°C° 0 mm 2 mps 719 mmHg 27%
    13:00 +38°C° 0 mm 2 mps 719 mmHg 27%
    14:00 +38°C° 0 mm 2 mps 718 mmHg 26%
    15:00 +37°C° 0 mm 2 mps 718 mmHg 27%
    16:00 +37°C° 0 mm 2 mps 718 mmHg 28%
    17:00 +36°C° 0 mm 2 mps 718 mmHg 29%
    18:00 +35°C° 0 mm 2 mps 718 mmHg 32%
    19:00 +33°C° 0 mm 1 mps 719 mmHg 35%
    20:00 +31°C° 0 mm 1 mps 719 mmHg 38%
    21:00 +31°C° 0 mm 1 mps 719 mmHg 40%
    22:00 +30°C° 0 mm 1 mps 719 mmHg 42%
    23:00 +30°C° 0 mm 1 mps 720 mmHg 45%

    17 November, Saturday

    Time Temperature Precipitation Wind Pressure Humidity
    00:00 +29°C° 0.1 mm 1 mps 719 mmHg 49%
    01:00 +28°C° 0.1 mm 1 mps 719 mmHg 53%
    02:00 +27°C° 0.1 mm 1 mps 718 mmHg 57%
    03:00 +27°C° 0.3 mm 1 mps 719 mmHg 61%
    04:00 +26°C° 0.3 mm 1 mps 719 mmHg 66%
    05:00 +26°C° 0.3 mm 1 mps 719 mmHg 70%
    06:00 +27°C° 0.4 mm 1 mps 720 mmHg 65%
    07:00 +29°C° 0.4 mm 2 mps 720 mmHg 60%
    08:00 +30°C° 0.4 mm 2 mps 721 mmHg 56%
    09:00 +32°C° 0.4 mm 2 mps 720 mmHg 49%
    10:00 +35°C° 0.4 mm 2 mps 720 mmHg 42%
    11:00 +37°C° 0.4 mm 2 mps 720 mmHg 36%
    12:00 +37°C° 0 mm 2 mps 719 mmHg 34%
    13:00 +38°C° 0 mm 2 mps 718 mmHg 32%
    14:00 +38°C° 0 mm 2 mps 717 mmHg 30%
    15:00 +38°C° 0 mm 2 mps 717 mmHg 32%
    16:00 +37°C° 0 mm 2 mps 717 mmHg 34%
    17:00 +36°C° 0 mm 2 mps 717 mmHg 36%
    18:00 +34°C° 0.8 mm 2 mps 718 mmHg 42%
    19:00 +31°C° 0.8 mm 1 mps 718 mmHg 49%
    20:00 +30°C° 0.8 mm 1 mps 718 mmHg 56%
    21:00 +29°C° 0.6 mm 1 mps 718 mmHg 58%
    22:00 +29°C° 0.6 mm 1 mps 718 mmHg 61%
    23:00 +28°C° 0.6 mm 1 mps 718 mmHg 64%

    18 November, Sunday

    Time Temperature Precipitation Wind Pressure Humidity
    00:00 +28°C° 0.2 mm 1 mps 718 mmHg 65%
    01:00 +28°C° 0.2 mm 1 mps 718 mmHg 67%
    02:00 +27°C° 0.2 mm 1 mps 717 mmHg 69%
    03:00 +27°C° 0.4 mm 1 mps 717 mmHg 70%
    04:00 +27°C° 0.4 mm 1 mps 718 mmHg 71%
    05:00 +27°C° 0.4 mm 1 mps 718 mmHg 73%
    06:00 +28°C° 0.2 mm 1 mps 719 mmHg 69%
    07:00 +28°C° 0.2 mm 2 mps 719 mmHg 65%
    08:00 +29°C° 0.2 mm 2 mps 720 mmHg 62%
    09:00 +30°C° 0.7 mm 2 mps 719 mmHg 59%
    10:00 +31°C° 0.7 mm 1 mps 719 mmHg 55%
    11:00 +32°C° 0.7 mm 1 mps 719 mmHg 52%
    12:00 +32°C° 0.4 mm 1 mps 718 mmHg 50%
    13:00 +32°C° 0.4 mm 2 mps 718 mmHg 48%
    14:00 +32°C° 0.4 mm 2 mps 717 mmHg 47%
    15:00 +32°C° 0 mm 2 mps 717 mmHg 47%
    16:00 +32°C° 0 mm 1 mps 717 mmHg 48%
    17:00 +31°C° 0 mm 1 mps 717 mmHg 49%
    18:00 +30°C° 0 mm 1 mps 718 mmHg 53%
    19:00 +29°C° 0 mm 1 mps 718 mmHg 56%
    20:00 +28°C° 0 mm 2 mps 718 mmHg 60%
    21:00 +28°C° 0 mm 1 mps 718 mmHg 63%
    22:00 +27°C° 0 mm 1 mps 719 mmHg 65%
    23:00 +27°C° 0 mm 1 mps 719 mmHg 68%

    19 November, Monday

    Time Temperature Precipitation Wind Pressure Humidity
    00:00 +26°C° 0 mm 1 mps 718 mmHg 71%
    01:00 +26°C° 0 mm 1 mps 718 mmHg 73%
    02:00 +25°C° 0 mm 1 mps 718 mmHg 76%
    03:00 +25°C° 0.1 mm 1 mps 718 mmHg 77%
    04:00 +25°C° 0.1 mm 1 mps 718 mmHg 79%
    05:00 +24°C° 0.1 mm 1 mps 719 mmHg 80%
    06:00 +27°C° 0.2 mm 1 mps 719 mmHg 71%
    07:00 +29°C° 0.2 mm 1 mps 720 mmHg 62%
    08:00 +32°C° 0.2 mm 1 mps 720 mmHg 52%
    09:00 +34°C° 0.3 mm 1 mps 720 mmHg 46%
    10:00 +36°C° 0.3 mm 1 mps 720 mmHg 41%
    11:00 +39°C° 0.3 mm 1 mps 720 mmHg 35%
    12:00 +37°C° 0.4 mm 2 mps 719 mmHg 37%
    13:00 +36°C° 0.4 mm 2 mps 718 mmHg 39%
    14:00 +35°C° 0.4 mm 2 mps 718 mmHg 40%
    15:00 +34°C° 0.3 mm 2 mps 718 mmHg 44%
    16:00 +32°C° 0.3 mm 2 mps 718 mmHg 48%
    17:00 +31°C° 0.3 mm 2 mps 717 mmHg 52%
    18:00 +30°C° 0.2 mm 2 mps 718 mmHg 56%
    19:00 +29°C° 0.2 mm 2 mps 718 mmHg 60%
    20:00 +28°C° 0.2 mm 2 mps 719 mmHg 65%
    21:00 +27°C° 0 mm 1 mps 719 mmHg 67%
    22:00 +27°C° 0 mm 1 mps 719 mmHg 70%
    23:00 +26°C° 0 mm 1 mps 719 mmHg 72%
    Show more